This is the latest recevied weather packets stored in our database for station/object N1UNH. If no packets are shown the sender has not sent any weather packets the latest 10 day(s).
| Time | Temp. | Humidity | Pressure | Rain* | Wind** | Luminosity | Snow |
|---|---|---|---|---|---|---|---|
| 1777885375 | 3.89° C | 81% | 1014.7 hPa | 0 mm | - | 0 W/m² | - |
| 1777885075 | 3.89° C | 84% | 1014.7 hPa | 0 mm | - | 0 W/m² | - |
| 1777884770 | 3.33° C | 82% | 1014.7 hPa | 0 mm | - | 0 W/m² | - |
| 1777884465 | 3.33° C | 85% | 1014.6 hPa | 0 mm | - | 0 W/m² | - |
| 1777884164 | 3.89° C | 81% | 1014.8 hPa | 0 mm | - | 0 W/m² | - |
| 1777883860 | 3.89° C | 78% | 1014.7 hPa | 0 mm | - | 0 W/m² | - |
| 1777883557 | 3.89° C | 80% | 1014.9 hPa | 0 mm | - | 0 W/m² | - |
| 1777883252 | 3.89° C | 82% | 1014.8 hPa | 0 mm | - | 0 W/m² | - |
| 1777882949 | 3.89° C | 82% | 1014.8 hPa | 0 mm | - | 0 W/m² | - |
| 1777882646 | 4.44° C | 79% | 1014.6 hPa | 0 mm | - | 0 W/m² | - |
| 1777882342 | 4.44° C | 81% | 1014.5 hPa | 0 mm | - | 0 W/m² | - |
| 1777882039 | 4.44° C | 79% | 1014.7 hPa | 0 mm | - | 0 W/m² | - |
| 1777881735 | 4.44° C | 82% | 1014.7 hPa | 0 mm | - | 0 W/m² | - |
| 1777881433 | 4.44° C | 81% | 1014.6 hPa | 0 mm | - | 0 W/m² | - |
| 1777881130 | 4.44° C | 81% | 1014.8 hPa | 0 mm | - | 0 W/m² | - |
| 1777880828 | 4.44° C | 80% | 1014.7 hPa | 0 mm | - | 0 W/m² | - |
| 1777880525 | 3.89° C | 81% | 1014.7 hPa | 0 mm | - | 0 W/m² | - |
| 1777880223 | 3.89° C | 79% | 1014.8 hPa | 0 mm | - | 0 W/m² | - |
| 1777879922 | 3.89° C | 82% | 1014.9 hPa | 0 mm | - | 0 W/m² | - |
| 1777879619 | 3.89° C | 83% | 1014.8 hPa | 0 mm | - | 0 W/m² | - |
| 1777879316 | 3.89° C | 83% | 1014.8 hPa | 0 mm | - | 0 W/m² | - |
| 1777879013 | 3.89° C | 81% | 1014.8 hPa | 0 mm | - | 0 W/m² | - |
| 1777878709 | 3.89° C | 82% | 1014.7 hPa | 0 mm | - | 0 W/m² | - |
| 1777878407 | 3.89° C | 83% | 1014.8 hPa | 0 mm | - | 0 W/m² | - |
| 1777878103 | 3.89° C | 81% | 1014.5 hPa | 0 mm | - | 0 W/m² | - |
* Rain latest hour (hover to see other rain measurements)
** Current wind speed in m/s (hover to see current wind gust speed)